CAPE
2043 1866 2134 2585 2571 2638 2761 2749 2657 2575 2503 2331 2144 1984 1719 1621 1666 1866 1798 1666 1407 1106 907 730 662 663 778 884 885 764 651 608 640 818 774 1319 1310 1250 1385 1593 1796 1715 1631 1668 1617 1577 1514 1588 1458 1461 1254 1449 1466 1451 1608 1486 1509 1447 1273 1554 1461 1601 1536 1291 1234 1361 1292 1202 1101 1064 992 1185 1184 923 803 849 762 644 486 376 271 266 385 636 693
1932 1913 1873 2171 2508 2697 2680 2662 2662 2512 2448 2256 2006 1820 1690 1785 1907 1893 1724 1317 1028 943 802 797 800 829 954 807 682 741 720 787 830 765 740 1155 1193 1298 1356 1332 1790 1716 1676 1622 1536 1482 1494 1296 1535 1404 1515 1439 1426 1423 1410 1426 1428 1460 1441 1436 1533 1644 1666 1647 1574 1501 1371 1301 1158 1033 983 1022 916 700 482 501 669 518 422 377 315 244 386 490 629
1900 1652 1719 2099 2492 2577 2688 2628 2508 2413 2315 2166 1942 1799 1820 1916 1856 1617 1331 1033 915 916 902 900 844 856 826 744 778 866 866 886 881 820 887 1266 1382 1448 1430 1671 1714 1626 1606 1530 1606 1577 1483 1502 1594 1285 1607 1535 1496 1305 1408 1451 1358 1373 1377 1539 1474 1463 1668 1668 1666 1614 1498 1359 1173 1012 931 909 868 706 459 379 340 444 426 330 280 359 356 566 551
1606 1499 1519 2080 2471 2492 2503 2520 2396 2273 2177 2164 2002 1958 1900 1843 1589 1332 1093 967 916 957 941 872 853 752 799 877 862 844 909 906 895 946 1221 1412 1501 1513 1485 1573 1736 1677 1655 1622 1526 1613 1442 1555 1438 1450 1331 1538 1421 1495 1303 1346 1422 1284 1397 1582 1595 1544 1518 1664 1729 1675 1515 1533 1264 747 556 323 485 630 644 507 322 198 188 294 325 290 294 322 413
1531 1424 1437 1851 1966 2406 2441 2390 2255 2174 2114 2042 1970 1866 1724 1568 1389 1190 1028 848 866 975 964 997 756 785 892 887 852 969 960 938 994 1356 1484 1435 1511 1512 1311 1408 1403 1534 1830 1733 1683 1646 1549 1468 1501 1390 1520 1548 1394 1336 1260 1322 1372 1373 1496 1539 1607 1544 1522 1541 1764 1730 1784 1844 1052 408 176 198 274 388 448 465 469 307 235 120 100 135 148 187 276
1598 1408 1222 1086 1866 2139 2196 2230 2058 2058 1929 1829 1806 1690 1604 1475 1327 1136 926 844 821 949 898 863 764 700 682 595 804 1032 1042 1207 1613 1743 1729 1658 1502 1720 1650 1526 1403 1703 1930 1733 1772 1634 1662 1409 1504 1606 1527 1482 1431 1343 1210 1260 1455 1392 1339 1348 1242 1321 1310 1188 1374 1644 1595 1974 1904 1362 48 54 62 179 238 185 287 277 292 301 268 194 164 134 226
1610 1421 1023 1234 1424 1965 2094 2086 2008 1945 1943 1811 1749 1630 1549 1505 1352 1156 996 884 845 906 842 760 660 788 581 661 1009 1270 1251 1610 1882 1832 1762 1675 1557 1548 1568 1434 1400 1542 1468 1822 1642 1627 1367 1311 1525 1434 1403 1396 1402 1420 1349 1302 1298 1296 1026 802 929 729 1010 1022 1238 1414 1782 1635 1052 117 0 0 8 46 212 216 262 216 179 465 514 419 375 292 227
1400 941 919 1339 1389 2000 1968 1939 1972 1871 1757 1732 1580 1512 1477 1409 1258 1074 897 846 833 703 787 799 641 627 630 820 1436 1637 1674 1793 1878 1778 1723 1660 1596 1487 1459 1728 1593 1543 1381 1437 1451 1360 1358 1280 1394 1616 1487 1466 1413 1358 1300 1170 989 891 729 578 621 729 768 734 748 808 932 1053 210 46 29 38 52 287 553 441 372 1019 1133 1244 1331 1361 1190 1007 810
1174 842 1437 1379 1552 1870 1915 1862 1774 1678 1553 1460 1406 1308 1229 1251 1091 918 833 804 729 667 664 627 540 613 692 848 1424 1788 1797 1800 1783 1736 1780 1634 1666 1582 1645 1616 1420 1285 1278 1414 1525 1577 1196 1375 1331 1250 1342 1323 1224 1202 1139 847 631 400 447 499 466 629 920 998 1000 1596 1263 324 244 30 34 232 342 617 1061 1143 1116 1214 1188 1011 1088 1250 1348 1320 1200
927 1763 1492 1285 1297 1930 1874 1784 1688 1474 1434 1290 1197 1146 1039 942 976 866 722 699 693 650 644 588 618 718 786 955 1350 1796 1768 1815 1817 1834 1799 1678 1765 1634 1450 1392 1349 1295 1216 1073 1087 1150 1142 1130 1202 1299 1403 1265 1080 953 1011 734 551 373 395 336 575 622 513 994 1102 1236 295 363 540 552 650 716 698 657 906 986 1180 1246 1089 1086 1066 1017 1064 1080 1053
1695 1606 1451 1242 1265 1733 1737 1787 1656 1457 1339 1222 1151 1084 932 873 817 783 725 645 661 661 661 618 665 720 846 993 1391 1722 1940 1959 2001 1868 1872 1814 1740 1697 1533 1383 1295 1168 1094 1037 1269 1195 1316 1366 1359 1338 1293 1220 1180 942 877 792 622 567 473 516 472 1001 822 1180 1405 245 50 172 639 663 865 816 575 638 834 996 1012 983 903 850 937 886 776 822 813
1698 1604 1337 1216 1732 1583 1659 1639 1523 1394 1237 1139 1056 1007 893 869 898 772 756 757 714 621 669 694 871 714 827 1016 1311 1659 1903 2013 2113 1981 1804 1683 1650 1599 1429 1431 1265 1120 1049 1249 1441 1564 1645 1534 1400 1332 1283 1241 1242 966 766 647 542 540 454 453 758 850 1072 1197 1035 195 117 436 405 210 229 378 517 835 864 898 809 754 793 866 886 823 866 766 644
1500 1520 1359 1242 1095 1620 1571 1486 1384 1361 1221 1134 1121 989 961 987 874 806 782 930 709 707 722 725 829 1172 1079 1026 1388 1772 1844 1881 1984 1818 1710 1570 1348 1495 1498 1414 1102 898 1124 1339 1314 1354 1441 1418 1341 1280 1181 1124 1165 943 694 530 598 355 606 512 716 730 921 1140 1096 47 81 214 308 297 369 503 747 962 854 723 785 732 724 720 753 758 633 559 400
1542 1559 1211 911 919 1644 1540 1461 1439 1402 1293 1287 1161 1152 1026 996 906 871 876 1130 866 888 1091 1121 1181 1030 1033 1062 1370 1658 1808 1801 1748 1727 1635 1534 1476 1409 1540 1398 1183 975 1110 1274 1385 1519 1471 1397 1421 1315 1307 1348 969 916 629 461 442 554 514 515 595 589 1043 999 391 242 201 240 249 300 408 535 594 781 725 696 602 530 681 760 616 596 520 320 188
1782 1459 1104 1115 1170 1074 1559 1522 1480 1481 1490 1395 1356 1271 1048 1030 1034 1041 1021 922 929 927 1164 934 992 1018 935 982 1531 1667 1716 1780 1732 1594 1543 1483 1418 1384 1490 1399 1150 1044 1119 1341 1387 1514 1429 1391 1322 1251 1295 1128 906 753 649 460 282 407 441 246 805 834 901 588 304 259 253 277 228 221 274 328 720 539 393 391 392 446 407 501 506 450 360 278 232
1656 1463 1108 1065 774 861 1109 1486 1448 1532 1536 1423 1377 1178 1137 1133 1175 974 1197 1289 1394 1410 1275 1230 1175 1014 1310 1442 1606 1633 1612 1581 1635 1558 1488 1379 1309 1316 1509 1428 1216 1012 1261 1389 1439 1519 1488 1320 1300 1243 1105 1024 935 718 529 464 335 401 356 243 422 690 948 1163 381 410 308 319 256 201 129 229 582 330 209 236 303 363 270 298 311 293 224 184 131
1631 1239 824 594 787 648 683 922 1165 1420 1394 1372 1376 1252 1217 1392 1371 1269 1499 1596 1502 1430 1348 1308 1359 1626 1581 1512 1592 1610 1606 1501 1441 1419 1424 1470 1402 1322 1352 1406 1278 1222 1325 1438 1630 1550 1539 1400 1255 1192 1073 948 813 641 454 463 340 348 220 436 328 1137 1115 2610 265 182 351 328 222 136 90 144 324 329 196 147 162 188 262 232 137 142 142 172 119
1708 1213 747 632 530 492 598 602 1079 1003 1162 1317 1350 1332 1415 1483 1624 1632 1633 1603 1682 1768 2068 2063 1887 1684 1526 1482 1488 1582 1523 1498 1466 1445 1403 1364 1404 1360 1275 1352 1352 1406 1388 1495 1543 1733 1508 1434 1399 1226 1013 878 761 548 373 265 247 268 198 344 982 1441 1568 1796 414 444 410 322 225 190 169 461 285 200 126 106 104 134 164 99 74 407 364 261 255
1613 1377 920 742 547 442 337 604 926 669 1032 1057 1174 1304 1396 1539 1662 1729 1663 1626 1743 1841 2093 1964 1720 1575 1525 1456 1481 1536 1535 1431 1460 1377 1324 1308 1288 1244 1266 1288 1333 1261 1347 1459 1472 1636 1602 1562 1392 1145 1040 873 656 506 329 150 187 384 410 650 834 1083 1349 1108 246 275 315 445 231 102 141 310 352 272 324 291 221 188 163 127 130 140 163 192 227
1312 1249 1720 2247 706 537 634 575 728 823 842 966 1155 1202 1472 1583 1728 1809 1583 1580 1592 1634 1780 1913 1703 1625 1486 1523 1626 1636 1545 1486 1368 1294 1281 1232 1230 1175 1124 1154 1296 1326 1148 1457 1546 1583 1712 1542 1300 1091 964 777 608 416 377 342 255 322 457 634 886 1086 687 1067 507 427 222 184 144 119 425 353 293 238 221 161 110 79 58 120 111 83 89 93 65
1494 1250 1594 1889 1806 768 950 964 1012 955 1023 1198 1444 1344 1423 1687 1725 1698 1606 1446 1452 1584 1726 1760 1738 1655 1558 1755 1977 1710 1526 1496 1205 954 1287 1080 1163 1350 1147 1048 1174 1156 1288 1379 1566 1594 1676 1516 1196 1094 949 754 565 394 274 263 464 299 698 473 844 606 650 321 308 211 148 174 190 193 387 184 150 141 131 98 113 80 36 32 22 108 38 6 6
1422 1144 900 1401 1316 1077 1930 1430 1578 1586 1432 1455 1452 1492 1520 1339 1322 1562 1382 1521 1320 1409 1423 1472 1454 1476 1559 1629 1775 1646 1667 1322 1200 1097 913 871 1174 1201 1109 1089 1055 1114 1352 1422 1590 1629 1527 1404 1268 1133 894 721 501 241 305 391 348 613 443 511 612 707 1021 787 539 459 262 148 189 196 179 122 97 105 124 82 74 68 69 55 35 30 26 29 17
1505 1176 920 1116 1255 1132 1698 1524 1601 1612 1139 1006 1008 1501 1380 1387 1260 1319 1245 1430 1182 1111 1066 1013 1071 1168 1243 1174 1648 1925 1494 1385 1570 1061 1115 1011 1213 1136 1107 1066 1086 1219 1391 1374 1422 1576 1468 1466 1347 1172 1081 896 653 80 40 310 399 507 608 651 664 880 886 615 445 512 205 121 75 127 98 108 140 69 54 98 64 33 33 43 31 17 28 29 29
1263 1224 1152 1157 1162 1185 1593 1455 1471 1123 998 966 920 1133 1621 2012 1466 1184 1173 1251 1455 1575 1247 1063 888 1192 1089 1701 1469 1270 1030 1481 1288 1014 1417 1270 1162 1009 1081 1083 1050 1309 1398 1437 1488 1414 1432 1454 1396 1335 1199 782 589 150 11 84 340 646 711 838 916 908 734 426 303 214 266 73 43 107 161 162 122 85 69 35 32 53 54 45 41 15 14 10 8
1316 1292 1317 1296 1166 1314 1703 1486 1423 1126 861 886 771 598 873 1019 1196 1228 1390 1464 781 930 822 660 876 827 1408 1568 1278 1121 1268 1030 1132 1114 1217 1295 986 724 897 823 976 1081 1512 1192 1398 1326 1324 1381 1236 1366 976 802 1030 1026 444 211 598 680 783 1045 1159 1045 472 524 389 321 86 71 104 132 92 62 68 127 132 98 104 81 62 34 30 13 21 28 20
1444 1320 1460 1257 1184 1325 1353 1457 1291 1067 907 896 806 877 977 964 972 1426 1367 1410 1054 1133 1013 764 902 892 1490 1522 1834 1405 1369 1223 1207 1377 1145 1458 921 549 539 596 719 716 1353 1089 1439 1575 1412 1416 871 800 768 816 1069 1115 790 499 840 1169 664 938 836 503 609 418 366 352 272 60 81 68 72 67 93 51 136 130 46 14 24 24 8 13 7 22 14
1372 1429 1458 1356 1237 1374 1298 1230 1133 1020 929 981 974 922 914 970 1074 1118 1212 1418 1359 1248 925 968 873 1022 1373 1471 1527 1708 1276 1078 1134 1073 1049 882 943 656 451 582 441 407 514 610 993 1814 1429 1326 929 677 717 942 1021 654 874 695 792 648 715 639 624 622 408 373 364 290 77 50 70 61 33 14 23 24 15 3 49 10 14 5 0 0 6 13 12
1250 1352 1402 1390 1296 1355 1370 1209 1219 1203 998 1094 1121 931 908 987 925 1410 1342 1596 1525 1370 996 1118 864 985 1043 1418 1419 1755 1452 1153 1117 1085 772 873 820 1034 518 495 451 395 238 311 782 884 1030 1264 1083 739 693 921 1036 765 513 528 592 780 413 514 484 491 942 272 232 197 95 52 40 36 5 14 7 0 0 1 3 2 0 0 2 1 0 7 5
1168 1414 1311 1488 1396 1313 1328 1307 1204 1159 1130 1081 1267 1058 993 997 956 1192 1172 1302 1580 1298 1465 1488 1043 1066 1287 1418 1298 1859 1542 1511 1532 1158 1095 1179 1312 1226 1206 1195 520 443 343 420 537 965 1185 1357 1171 954 840 892 960 589 395 548 846 929 530 505 763 577 396 244 269 198 150 80 20 22 21 14 12 0 1 6 6 8 4 4 6 15 9 5 3
1227 1282 1299 1245 1336 1366 1369 1235 1216 1237 1324 1219 1206 1120 1043 954 973 1249 1211 1050 1184 1364 1534 1535 1553 1655 1746 1508 1606 1891 1548 1526 1377 1338 1186 1251 1350 1266 1451 744 939 1245 380 210 722 1168 1324 1415 1338 1003 742 891 644 786 952 551 489 560 837 876 548 683 490 254 350 232 190 154 80 82 73 116 138 64 26 2 0 2 24 2 0 1 2 1 2
1378 1346 1404 1281 1231 1298 1329 1605 1414 1474 1184 1084 1196 1097 1141 1014 928 1118 1232 1401 1515 1544 1181 1192 1546 1297 1275 1460 1466 1702 1519 1611 1713 1737 1490 1451 1529 1434 1378 1320 1008 688 437 426 899 1054 1131 1240 1369 1224 1266 814 1203 604 648 620 435 493 615 563 859 807 561 936 525 225 136 214 168 53 90 76 50 48 73 0 0 0 0 1 0 0 0 2 2
1737 1559 1503 1537 1497 1598 1755 1852 1656 1650 1085 1164 1254 1185 1185 1194 1047 1022 843 1026 1780 1595 1723 1640 1380 1534 1261 999 1281 1444 1527 1860 1863 1851 1509 1536 1424 1195 1398 1196 1218 1011 410 206 345 847 1040 970 1094 1329 1528 1961 1450 913 492 634 360 391 715 914 845 786 778 420 274 448 235 60 15 3 1 27 53 24 41 0 0 0 2 1 0 0 0 2 2
1818 1885 1790 1653 1876 1986 1848 1671 1687 1708 1432 1233 1208 1208 1353 1383 1500 1242 1314 1351 1911 1778 1554 1153 1441 1040 944 978 1322 1085 1459 2231 2112 1947 1984 1514 1489 1362 1306 1095 1085 1086 828 528 486 820 822 1090 1546 1554 2096 1894 1308 741 646 644 519 474 645 697 828 708 392 469 536 564 344 196 75 7 0 0 1 139 56 10 0 0 0 0 0 0 0 1 3
1961 2004 1971 1886 1783 1850 1654 1815 1701 1566 1639 1567 1491 1548 1596 1636 1856 1751 1761 1904 1814 1850 1505 1210 931 791 724 716 975 1331 1419 2190 2048 2104 1858 1712 1360 1185 1079 1084 1271 1025 946 702 699 560 545 734 1239 1207 1724 1000 770 534 329 791 501 711 1040 764 752 567 561 353 698 671 746 502 308 21 11 0 0 0 4 0 0 0 0 0 0 0 2 1 0
2092 2150 2252 2365 1977 2038 1872 1840 1914 2001 1804 1760 1602 1819 1866 1832 1824 1960 1781 1975 1741 1500 1432 1346 1053 964 797 584 988 985 1231 1204 1763 2035 1442 1416 1676 1333 1239 1160 1482 1419 1204 1156 997 826 475 451 949 987 1533 1520 1457 1290 895 1096 1058 744 923 847 766 904 582 943 800 697 593 680 699 433 192 31 0 0 0 0 0 0 0 0 0 2 0 0 0
2397 2490 2502 2506 2221 2313 2021 2158 1923 2225 2161 2169 1911 2326 2044 2275 1899 1582 1579 1932 1699 1211 1252 1630 1265 1260 1005 1376 1027 994 1150 1134 1347 1549 1949 1660 1673 1622 1363 1490 1151 1460 955 834 1366 774 587 514 802 938 970 723 1039 819 1349 1013 1244 763 750 871 1369 904 935 1017 884 783 441 608 346 648 326 214 75 2 29 0 0 0 0 0 0 0 0 0 0
2532 2575 2345 2355 2484 2437 2296 2342 2147 2256 2360 2276 2116 2102 2475 2043 2030 1909 1059 1572 1465 1362 1121 922 1100 968 1215 682 677 1036 1141 1233 1231 1180 1426 1432 1448 1716 1896 1598 1421 1424 1435 901 980 996 896 1184 1378 785 904 515 930 1300 874 849 841 621 764 1092 1213 1156 1200 1063 926 919 882 628 524 722 588 452 509 441 51 0 0 0 0 0 0 0 0 0 0
2101 2512 2536 2499 2584 2466 2456 2370 2386 2177 2443 2357 2189 2222 2194 2113 1960 1192 1435 1065 1301 1473 1282 1325 872 1002 722 699 532 955 1083 1439 1411 1471 1554 1456 1190 1289 1360 1413 1178 1379 1277 880 566 763 886 1121 828 744 940 1000 982 834 1004 1241 715 837 666 927 1278 1173 1329 1216 1170 1086 1274 662 715 898 1448 756 383 65 64 0 0 0 0 3 0 0 0 0 3
2508 2512 2457 2688 2779 2592 2515 2299 2130 2256 2393 2515 1995 1726 2104 1953 1792 1650 1228 1560 1718 1502 1685 1321 884 1089 998 653 639 1010 1758 1823 1892 1702 1462 1426 1385 1296 1436 1183 1304 1362 1194 994 868 980 978 1049 793 604 839 578 344 326 397 934 705 660 661 609 1354 1286 1394 1473 1328 1357 1518 1343 1374 1221 1066 746 590 109 143 19 0 0 0 0 0 0 2 310 88
2680 2686 2564 2569 2474 2579 2518 2592 2349 2112 2230 2126 1758 1719 1783 1822 1539 1665 1400 1388 1595 2015 1836 1390 1155 1018 1015 862 693 1069 1434 1353 1427 1790 2048 1784 1641 1560 1464 1299 1190 1255 1091 962 798 933 860 832 829 566 656 604 443 244 473 457 425 437 426 417 1104 1370 1399 1313 1438 1784 1378 1314 1783 1383 1300 1294 506 314 532 507 0 6 0 0 0 0 54 267 273
2506 2597 2437 2398 2342 2067 2504 2328 2230 1834 1830 1745 1618 1709 1826 1752 1631 1493 1864 1810 1424 1612 1445 1282 1348 1188 1242 927 1003 1074 1014 1112 1532 1296 1911 1632 1504 1525 1542 1368 1114 957 991 1045 833 813 834 806 956 611 477 519 404 288 497 544 359 265 379 497 1194 1092 1371 1344 1311 1412 981 1111 1596 878 616 602 676 314 633 677 568 447 27 4 13 166 119 14 220
1849 1942 1875 2114 2105 2045 2046 2074 2110 1876 1763 1810 1910 1735 1886 1746 1702 1723 1903 1930 2014 1518 1322 1031 995 858 885 1324 1447 1253 1093 1181 1169 1132 1263 1524 1353 1366 1394 1367 1187 1065 1054 1143 1066 833 827 802 682 476 574 474 430 373 833 235 237 247 351 586 686 1151 782 934 1128 1166 1174 1048 1196 1142 716 470 507 372 512 444 647 588 725 230 375 444 471 176 191
1714 1621 1506 1541 1605 1460 1460 1703 1760 1746 1831 1868 1785 1781 1966 2009 1777 1819 1976 1828 1936 1429 1418 1191 1246 1343 1416 1126 1065 1199 1015 1074 1019 969 1407 1598 1488 1263 1372 1422 1373 1278 1262 1167 1146 1162 1199 878 560 466 409 435 501 474 510 312 406 312 508 544 368 477 551 658 1018 1180 1105 856 1238 1017 831 654 731 455 594 491 294 396 434 597 597 543 370 334 372
1683 1429 1263 1414 1346 1376 1319 1566 1680 1554 1705 1532 1296 1549 1661 1690 1914 1791 1782 2040 2102 1870 1687 1608 1645 1478 1136 1106 1140 1336 1255 1324 1298 989 964 1560 1566 1337 1336 1509 1445 1354 1231 1155 1105 855 989 897 621 558 320 502 404 380 390 683 353 232 228 196 535 406 294 392 674 693 858 872 981 758 807 901 939 499 749 496 297 348 318 92 197 360 488 418 635
1466 1365 1159 1026 1076 1220 1335 1467 1578 1686 1637 1713 1813 1737 1940 1899 1839 1912 1930 1992 2040 1815 2058 1785 1486 1461 1531 1726 1742 1456 1280 1358 1508 1482 1174 1444 1522 1429 1332 1450 1556 1321 985 888 944 961 989 980 672 373 420 347 316 238 335 520 582 182 160 555 403 134 140 479 615 855 768 779 845 792 771 803 802 901 705 473 435 348 170 303 384 88 863 694 308
1381 1295 1133 933 845 812 876 1123 1325 1462 1478 1565 1715 1711 1866 1997 1879 1896 1953 1870 1986 2034 1429 1552 1505 1478 1335 1766 1923 1744 1633 1495 1386 1425 1510 1440 1346 1320 1319 1255 1432 1405 900 714 768 982 733 715 846 355 207 302 287 402 398 255 408 266 366 884 1901 384 336 574 534 383 737 886 851 910 673 724 590 764 608 497 318 100 234 338 462 602 751 719 458
1157 1185 1066 948 789 594 684 738 1175 1306 1349 1455 1565 1622 1769 1723 1796 1668 1653 1731 1790 1834 2116 2064 2062 1900 1645 1677 1854 1986 1714 1593 1608 1546 1560 1506 1391 1418 1356 1225 1291 1332 1132 819 676 752 809 558 652 634 366 331 311 267 283 246 182 263 463 414 1248 1081 1232 635 489 423 374 385 530 610 718 735 655 648 597 435 294 261 144 404 485 553 589 612 657
1201 1068 997 933 799 633 513 521 736 909 869 1035 1257 1534 1564 1590 1647 1657 1619 1565 1694 1712 1852 1975 2188 2151 1874 1988 1934 2055 1932 1626 1473 1468 1557 1203 1378 1415 1289 1062 1174 1434 1127 865 630 558 741 607 642 791 522 412 432 223 237 160 149 218 215 645 498 1029 1088 920 599 157 333 421 487 541 476 488 482 415 392 344 326 386 224 426 676 552 486 649 594
689 729 761 750 774 730 710 615 544 526 572 578 746 1236 1343 1437 1625 1553 1611 1627 1474 1474 1452 1528 1691 1939 1922 1761 1634 1724 1751 1884 1864 1671 1566 1113 805 1318 1563 1136 1020 790 965 923 639 575 590 578 417 405 412 311 281 298 278 297 220 223 314 448 528 1090 1084 999 919 749 812 506 406 382 336 437 472 527 557 639 329 417 375 249 287 403 350 619 741
640 685 847 902 898 889 795 607 527 493 230 267 380 628 844 1165 1311 1291 1315 1320 1287 1370 1404 1456 1499 1610 1490 1651 865 1140 1407 1530 1867 1638 1487 1140 1144 818 990 1109 926 857 817 745 592 504 369 470 350 511 553 415 394 317 203 296 265 276 225 482 725 1064 817 597 891 684 902 587 311 440 426 331 279 302 636 911 755 407 454 461 363 401 266 329 656
532 576 698 779 855 867 742 642 491 424 391 331 224 368 462 736 871 1015 1078 1084 1100 1095 1074 1104 1131 1204 1319 1395 1630 1139 825 1343 1627 1428 917 1184 946 765 698 775 1158 930 710 487 425 361 334 370 489 528 562 448 407 404 297 242 195 220 340 612 921 866 674 646 470 500 574 382 169 371 523 428 321 328 566 692 581 299 334 591 402 118 142 201 625
Wind_Speed
22 24 22 24 26 27 27 27 26 28 28 29 30 31 32 32 32 31 31 31 29 28 27 27 27 27 28 28 29 29 29 28 29 27 24 23 25 23 22 22 22 20 20 19 19 18 18 19 19 17 15 13 12 10 10 10 10 11 11 12 11 11 10 11 12 13 13 12 12 12 11 11 11 10 10 11 12 12 10 12 11 7 5 8 12
22 22 21 22 24 26 28 27 27 28 29 30 30 31 32 32 32 31 31 31 30 29 28 28 28 29 29 29 30 30 29 28 27 27 25 23 25 23 22 22 21 20 20 19 18 18 18 18 18 17 14 13 11 10 9 9 9 8 9 10 10 11 12 12 13 14 15 15 14 14 12 12 12 12 12 12 13 13 12 12 12 6 4 11 12
23 21 21 22 26 26 27 27 29 29 29 29 30 31 31 31 31 31 31 31 30 30 30 29 30 30 29 30 31 31 30 28 27 26 26 25 24 23 23 22 21 20 20 19 18 18 18 17 17 17 14 13 11 10 9 9 8 7 8 7 8 9 11 12 13 15 17 18 18 16 15 14 14 13 13 13 13 13 13 12 12 11 6 12 11
23 21 20 22 24 24 26 28 29 29 29 29 29 30 31 31 31 31 31 31 31 31 30 29 30 30 31 29 30 31 30 28 28 27 25 24 24 23 22 21 20 20 20 19 18 17 17 16 16 15 14 13 11 10 9 9 8 6 6 6 5 6 8 10 12 15 17 20 20 15 9 7 9 14 14 13 14 14 13 13 13 14 14 12 13
23 19 20 19 21 22 25 26 27 29 28 29 29 30 32 31 30 31 31 31 30 31 30 29 31 31 31 31 31 30 29 28 27 26 25 24 23 23 23 21 20 20 19 18 18 18 17 16 16 15 14 12 11 10 10 10 9 7 5 4 4 3 5 7 9 12 15 17 17 13 11 10 8 13 13 14 14 14 15 15 14 13 13 13 13
21 18 17 19 20 21 24 25 28 28 29 29 29 30 31 31 31 30 31 31 31 30 30 31 31 30 32 32 31 30 29 28 27 26 24 24 22 23 23 21 20 19 18 17 17 18 17 16 16 16 14 12 11 10 10 10 9 7 5 4 3 4 5 7 12 12 15 14 10 4 nan nan nan 9 14 13 14 14 15 15 15 14 14 15 15
19 16 18 19 19 21 22 24 27 28 28 30 30 30 30 31 31 31 31 31 32 31 31 31 31 30 31 31 30 29 29 29 27 26 26 24 24 22 23 21 20 19 19 17 17 17 18 17 16 16 15 13 11 11 9 8 8 7 5 5 6 8 9 10 10 12 14 11 8 6 nan nan nan nan 14 14 13 15 16 16 16 16 16 16 16
16 15 18 18 18 20 22 25 27 27 29 29 29 30 30 30 31 31 32 32 31 31 32 31 30 30 29 28 29 28 28 28 28 27 26 25 24 23 22 21 18 18 19 18 17 17 17 17 17 16 15 14 12 11 9 8 6 6 6 5 3 5 8 6 7 8 9 10 9 nan nan nan nan 9 12 13 15 17 17 17 18 16 16 17 16
15 17 20 19 19 23 22 24 25 27 27 28 29 30 30 30 31 31 32 31 31 32 32 31 30 30 28 28 28 28 28 27 28 28 27 26 26 24 22 21 20 18 17 16 15 15 17 18 18 17 16 14 12 10 9 8 7 6 4 2 3 5 8 9 9 8 8 5 6 nan nan 8 8 9 13 15 16 17 17 16 15 17 18 18 17
15 19 18 18 19 21 21 22 23 26 27 28 29 30 31 31 31 32 32 31 32 32 32 31 31 29 27 28 28 27 27 26 27 28 27 27 26 24 22 20 19 18 18 17 17 16 16 16 17 17 16 14 13 11 9 8 6 4 3 1 2 6 7 10 9 11 8 9 10 11 9 12 9 9 13 15 18 18 18 19 15 14 15 18 18
18 18 17 19 23 19 21 21 23 25 26 28 28 30 31 31 32 32 32 32 32 32 31 31 30 29 28 28 28 27 27 26 25 28 27 25 26 24 22 20 18 17 16 17 16 15 16 16 17 17 17 15 14 12 10 8 6 5 3 4 3 5 8 9 7 4 nan 10 10 9 11 13 6 7 14 16 17 18 17 17 16 16 16 17 17
18 18 18 19 25 21 20 21 22 23 26 27 29 30 31 31 32 32 32 32 32 31 31 30 27 27 28 28 28 27 26 27 26 27 27 25 26 25 23 21 19 17 15 13 14 15 16 17 18 18 17 16 15 13 11 9 7 6 4 3 4 5 7 11 8 8 10 12 9 8 8 9 8 10 15 16 17 17 18 18 18 17 17 16 17
18 18 19 20 22 22 21 21 22 23 25 27 29 30 31 31 32 32 32 30 30 30 30 29 27 25 25 28 28 28 26 27 28 27 26 24 25 24 22 21 20 19 17 16 15 17 17 17 18 18 17 16 15 13 11 9 7 5 5 4 3 4 7 12 7 nan nan 10 10 10 10 6 7 13 14 16 17 18 18 18 18 17 17 16 15
20 20 19 20 21 25 21 20 21 23 25 27 29 29 30 31 31 31 30 28 29 28 26 26 25 25 24 27 28 28 27 27 28 27 25 24 24 24 22 20 20 19 17 16 16 16 17 18 18 17 17 16 15 13 11 9 6 4 2 3 4 4 6 6 10 7 9 11 9 11 9 6 7 12 14 16 17 17 18 18 18 17 17 16 15
21 21 20 21 22 22 25 20 20 22 24 26 27 29 31 31 30 30 28 29 29 27 27 27 25 25 25 26 28 28 28 28 28 27 24 24 23 22 21 19 19 18 17 16 17 17 17 18 18 17 17 16 15 14 11 8 6 3 2 3 4 5 6 4 5 9 10 11 10 12 10 8 9 11 13 14 16 16 17 17 17 18 18 17 16
23 23 23 22 23 21 20 22 22 23 24 27 27 30 31 30 30 30 28 27 27 26 26 26 25 25 25 26 27 28 29 28 27 26 24 22 23 23 20 18 18 17 16 16 17 17 17 18 19 17 17 17 16 14 12 9 7 4 2 2 6 7 9 7 7 9 9 10 11 10 9 9 11 11 12 13 14 14 15 16 16 16 17 17 17
24 25 24 23 22 20 20 19 21 26 26 27 26 29 30 30 28 27 26 28 28 27 27 26 25 26 27 27 27 27 28 28 28 26 25 23 23 22 20 17 16 16 16 16 17 18 18 18 19 18 17 17 16 14 12 10 8 6 5 8 9 7 7 8 10 10 10 12 13 12 nan 9 12 12 13 12 13 14 15 17 17 17 18 18 18
24 26 24 22 21 22 20 20 21 22 23 24 25 27 28 29 27 27 27 28 28 28 28 27 27 27 27 26 26 27 27 27 27 26 25 24 21 19 18 16 15 15 15 16 17 18 18 19 19 19 18 17 16 14 13 10 8 9 10 8 5 6 3 4 9 10 12 13 12 12 10 11 13 13 13 13 13 14 15 nan nan 20 20 18 18
26 21 22 21 22 24 22 22 21 22 22 20 21 25 27 27 26 27 27 28 29 29 29 28 28 26 25 25 25 25 25 26 26 26 26 25 22 18 17 16 14 14 15 16 17 18 18 19 19 19 20 18 17 15 13 11 11 8 6 5 4 2 4 4 11 12 13 11 11 12 10 12 12 15 14 14 15 16 16 16 17 17 18 18 18
22 16 18 17 22 25 24 22 21 22 20 21 23 24 24 26 26 26 27 28 29 29 28 28 28 26 24 24 23 22 21 22 25 25 27 25 24 19 17 16 14 13 14 15 17 18 19 19 19 19 20 20 18 15 13 11 8 7 6 5 4 4 5 9 16 15 14 13 13 12 14 15 15 14 14 14 14 nan nan 16 17 nan nan nan nan
18 19 20 20 27 28 26 22 22 21 22 25 24 24 24 24 24 26 27 27 28 28 28 27 27 26 24 23 22 19 18 19 20 21 25 22 21 18 19 16 14 13 14 16 16 18 20 20 20 20 21 22 19 16 12 9 9 7 6 6 4 4 8 13 15 15 15 14 14 13 16 16 15 15 14 nan 15 nan nan nan nan 18 nan nan nan
22 23 23 25 31 27 26 23 21 21 24 24 24 24 23 21 20 23 24 26 26 27 25 23 24 24 24 23 21 17 18 20 16 22 19 21 21 24 20 16 14 14 15 16 16 17 19 20 20 20 21 22 21 14 11 10 10 10 8 7 6 7 8 12 16 16 16 16 15 15 17 16 nan 16 15 nan nan nan nan nan nan nan nan nan nan
24 26 26 31 31 24 22 21 22 25 26 24 24 24 22 18 20 21 22 25 26 26 24 21 22 23 23 23 21 20 18 16 17 22 20 21 22 21 21 18 16 15 16 15 15 16 17 20 21 20 21 22 18 nan nan 12 13 13 11 8 9 9 10 16 15 15 16 16 nan 19 nan 16 16 nan nan nan nan nan nan nan nan nan nan nan nan
27 29 28 29 26 20 19 22 24 27 26 23 25 21 19 17 18 19 21 23 23 22 20 18 20 20 20 22 22 22 19 17 16 18 25 23 23 20 21 21 18 16 15 15 15 15 17 18 20 20 17 15 14 14 nan nan 15 15 12 12 11 11 12 15 16 17 16 nan nan 20 18 17 16 nan nan nan nan nan nan nan nan nan nan nan nan
29 30 26 25 24 23 22 24 25 27 30 26 27 24 22 20 18 19 21 22 23 22 22 18 17 19 18 22 21 22 20 20 16 15 19 24 23 22 20 20 20 18 17 14 14 15 15 15 17 17 14 14 14 11 13 15 16 17 15 14 14 13 12 15 18 18 nan nan 15 19 nan nan nan 17 17 nan 18 nan nan nan nan nan nan nan nan
28 27 22 25 23 23 24 22 22 24 26 24 25 28 23 21 19 18 21 22 23 23 20 17 18 18 19 19 20 23 22 18 15 16 15 17 23 24 24 21 21 19 21 14 14 17 14 15 17 18 14 14 14 11 14 16 15 15 16 13 11 11 14 15 18 20 18 nan nan nan nan nan nan nan 19 19 nan nan nan nan nan nan nan nan nan
24 22 23 25 26 25 26 24 24 25 24 25 27 29 26 22 20 20 21 22 22 21 17 15 17 18 18 19 20 22 24 16 17 16 18 14 15 24 25 23 20 19 22 16 16 18 14 16 16 16 15 13 12 14 15 14 15 17 16 15 13 13 15 18 18 21 nan nan nan nan nan nan nan nan nan nan nan nan nan nan nan nan nan nan nan
24 25 24 26 28 28 28 27 27 26 23 27 32 33 27 22 22 25 22 22 23 21 19 17 17 19 21 21 21 22 25 23 20 20 19 16 14 16 21 23 22 21 20 18 17 19 17 16 16 16 14 14 14 16 15 16 14 17 17 15 13 12 13 16 18 20 nan nan nan nan nan nan nan nan nan nan nan nan nan nan nan nan nan nan nan
28 26 25 26 27 25 25 25 27 27 26 27 28 25 20 19 24 26 21 21 23 23 22 23 21 21 24 24 22 23 23 23 22 24 23 20 17 16 17 19 22 22 20 18 17 19 17 16 16 16 15 14 14 18 16 18 14 14 16 15 14 12 14 16 17 17 21 nan nan nan nan nan nan nan nan nan nan nan nan nan nan nan nan nan nan
29 27 26 25 25 26 26 25 26 27 28 28 27 26 22 21 24 25 21 21 22 24 26 26 25 23 22 22 21 23 23 23 23 25 25 22 19 18 17 19 17 20 22 18 17 22 19 17 15 17 16 17 16 18 18 18 15 15 14 17 15 13 13 15 13 16 18 21 nan nan nan 18 16 nan nan nan nan nan nan nan nan nan nan nan nan
26 27 26 25 25 25 24 24 26 28 28 27 28 29 26 22 21 22 21 21 22 24 24 24 25 24 22 22 21 23 21 22 24 24 24 23 21 19 18 19 18 22 22 15 14 21 22 20 17 17 16 16 18 14 19 18 15 17 14 18 15 15 14 12 14 20 16 20 21 nan nan nan nan nan nan nan nan nan nan nan nan nan nan nan nan
24 26 26 26 25 24 25 26 25 27 28 30 31 30 27 24 23 21 21 22 22 22 23 24 24 23 23 23 22 23 21 22 23 24 22 22 22 21 18 18 18 19 20 20 14 17 20 21 20 18 18 21 20 16 13 19 16 16 17 17 17 16 15 13 15 15 17 nan nan nan nan nan nan nan nan nan nan nan nan nan nan nan nan nan nan
23 25 27 26 25 24 25 26 26 27 29 31 30 29 27 25 25 22 19 19 20 20 22 22 23 21 20 19 20 22 22 24 24 23 22 21 22 23 21 20 20 20 18 21 21 18 19 20 21 21 21 24 23 17 12 15 17 16 18 19 15 15 17 17 15 15 15 16 nan nan nan nan nan 14 nan nan nan nan nan nan nan nan nan nan nan
24 25 27 26 24 24 22 24 26 28 28 28 26 24 24 23 22 21 19 20 19 19 20 23 24 23 24 26 23 22 23 25 27 23 22 20 21 23 23 21 20 20 20 18 23 26 22 18 21 23 23 27 22 20 13 13 16 17 20 18 16 15 20 16 17 14 14 14 16 nan nan nan nan nan nan nan nan nan nan nan nan nan nan nan nan
24 25 25 27 25 24 23 24 25 26 26 26 24 21 21 21 21 20 18 17 19 19 19 20 24 25 31 29 29 27 27 26 28 25 25 19 23 23 23 21 21 20 19 21 20 26 27 19 22 24 23 24 25 21 18 15 17 18 17 16 15 20 17 17 17 16 14 13 15 13 15 nan nan nan nan nan nan nan nan nan nan nan nan nan nan
23 24 24 24 24 23 23 23 25 25 26 26 25 21 22 19 19 19 16 15 15 15 15 17 20 20 23 28 35 30 31 29 26 26 26 25 26 25 23 22 22 21 21 23 21 22 27 26 24 25 25 22 22 23 17 16 20 17 13 15 17 20 17 16 16 14 14 14 13 14 12 12 nan nan nan nan nan nan nan nan nan nan nan nan nan
21 23 23 21 21 24 23 22 26 26 28 28 24 21 17 17 16 16 16 14 14 17 14 14 19 18 21 25 25 28 29 25 25 27 28 23 23 25 24 24 22 21 22 25 24 23 27 31 30 25 26 23 20 23 22 20 18 18 15 15 18 18 18 16 15 13 14 13 14 14 12 8 9 14 nan nan nan nan nan nan nan nan nan nan nan
20 21 21 20 21 21 23 23 27 27 27 24 21 20 16 14 15 15 17 15 16 15 16 21 24 23 28 32 27 23 22 20 27 31 33 32 32 28 28 28 26 23 24 26 27 24 26 30 29 26 24 23 22 21 18 24 20 21 16 14 18 18 17 16 15 14 12 13 15 13 12 9 7 nan nan nan nan nan nan nan nan nan nan nan nan
19 20 20 20 21 21 22 26 27 27 24 23 21 18 16 15 15 18 18 16 18 19 20 22 24 24 29 30 28 24 21 25 25 27 34 33 33 34 33 32 31 28 26 27 26 28 29 29 27 26 27 30 27 20 16 19 21 19 18 13 19 18 18 17 16 14 14 14 13 12 12 10 8 8 13 nan nan nan nan nan nan nan nan 12 nan
18 19 22 22 21 21 24 26 27 25 25 22 20 18 15 15 16 18 20 23 18 19 23 25 24 28 27 29 27 25 25 26 26 26 32 34 32 31 32 33 31 30 29 28 27 28 32 31 27 26 25 27 29 27 21 21 21 15 14 13 20 20 19 18 16 14 14 14 13 12 12 10 8 10 12 11 nan nan nan nan nan nan nan 12 14
24 23 23 23 22 22 25 26 26 24 21 21 19 16 16 14 14 15 17 21 24 20 22 23 25 27 29 28 24 24 24 24 25 27 29 33 31 30 29 31 32 30 30 29 29 30 31 31 29 29 27 23 25 30 25 26 21 15 12 16 21 21 20 17 15 14 14 14 12 12 11 11 8 12 13 11 11 12 nan nan nan 10 9 nan 9
25 25 27 26 26 26 26 25 23 22 23 21 19 18 17 16 15 18 19 20 21 21 21 23 24 27 28 28 26 24 22 22 25 26 28 31 31 31 29 28 30 30 29 29 30 31 32 32 31 29 28 24 23 29 30 29 21 15 16 21 22 21 21 16 15 14 13 13 12 11 11 10 10 10 13 11 9 9 10 11 9 10 9 9 9
25 26 24 25 25 25 23 23 22 21 22 20 17 18 19 17 16 18 18 20 23 21 22 22 25 25 25 25 24 23 22 21 24 26 28 31 30 30 30 29 29 30 30 29 30 31 32 33 35 32 29 25 23 26 26 25 21 18 18 22 21 21 18 17 16 14 13 12 13 11 10 9 11 10 11 12 10 9 9 9 9 10 9 9 9
27 27 25 24 24 23 23 23 23 21 22 22 19 18 18 19 18 18 19 19 20 22 22 24 23 24 22 23 23 24 23 22 24 27 27 28 30 29 27 28 28 30 30 29 29 31 31 33 35 35 33 27 26 23 23 23 25 22 18 20 23 21 19 15 16 14 13 12 13 10 9 9 11 10 11 9 12 11 11 nan 9 11 10 9 8
27 27 26 26 23 23 22 23 23 23 23 21 19 20 18 18 19 19 20 20 22 20 23 23 23 23 22 24 25 26 25 23 23 25 26 28 29 28 26 26 28 29 29 28 27 30 31 33 35 37 35 30 26 23 22 21 22 19 16 24 24 20 17 20 19 16 16 12 11 11 9 10 10 9 11 9 8 12 11 13 14 nan 11 10 10
27 26 25 25 25 23 24 23 24 23 21 21 21 19 18 18 19 19 18 21 20 23 21 21 24 25 23 23 25 26 26 24 24 23 24 27 28 28 26 25 27 27 28 27 26 28 30 32 36 39 38 32 27 24 22 24 20 17 13 20 24 21 20 22 20 16 18 13 12 11 11 10 11 9 8 9 9 10 10 11 11 12 13 11 12
27 26 25 25 25 23 23 22 23 23 22 20 19 19 19 19 18 18 18 19 20 22 22 23 22 23 22 22 23 26 27 26 25 24 26 27 28 28 27 25 25 25 26 27 27 27 29 31 34 39 39 35 30 23 22 22 24 19 20 17 22 22 21 23 17 23 17 14 12 11 11 11 10 8 7 8 9 11 8 12 11 11 14 11 10
26 26 25 24 24 23 23 23 22 23 22 20 19 20 19 19 17 18 19 19 21 22 22 22 23 24 24 24 26 25 25 25 26 25 24 26 27 29 29 25 24 24 24 25 26 27 26 28 33 37 36 32 29 24 23 23 21 24 22 17 17 19 21 22 23 21 17 16 14 14 12 12 10 7 8 8 8 11 11 13 11 12 13 12 11
27 25 24 24 23 23 24 23 23 23 22 21 20 18 18 18 18 19 20 20 20 21 21 22 23 25 25 26 25 24 26 26 29 29 27 28 27 28 30 29 27 23 23 24 26 26 26 27 31 34 32 29 27 25 25 23 22 20 19 16 18 21 22 21 21 21 18 17 17 15 12 13 11 8 7 9 11 11 11 12 11 12 13 12 11
26 26 26 25 24 23 24 25 25 23 22 21 20 19 18 19 19 19 19 20 20 21 22 23 24 24 24 30 28 24 25 25 28 30 27 29 30 24 25 29 30 27 26 24 25 25 24 23 25 26 28 29 27 24 22 23 22 23 22 18 21 24 23 21 21 21 21 20 20 16 14 13 10 8 9 11 11 12 11 12 12 13 12 11 11
27 27 26 26 24 24 24 25 24 22 21 21 19 20 19 20 20 20 19 19 20 20 21 23 24 23 24 26 30 29 28 28 28 31 31 29 29 28 29 29 33 32 28 27 25 23 24 24 22 24 26 27 24 23 23 23 25 23 21 20 22 24 22 20 21 20 21 22 19 16 16 12 11 11 11 12 12 12 11 11 13 13 12 11 14
Wind_Direction
288 291 292 294 301 306 311 310 308 308 308 310 310 311 310 310 309 308 308 308 309 308 309 310 311 309 310 313 312 313 312 313 311 310 314 317 307 312 312 307 303 302 302 301 300 301 302 304 305 303 298 294 290 290 286 284 285 291 294 297 299 300 301 299 297 294 292 287 283 280 278 275 266 252 242 234 236 237 253 266 260 262 265 254 251
292 291 295 297 298 305 310 311 309 310 310 311 311 311 310 309 309 309 309 309 308 309 311 312 310 309 312 312 311 309 311 312 311 314 318 318 316 315 314 311 305 305 306 307 307 307 308 309 309 306 301 299 295 289 288 287 292 296 299 299 307 313 315 319 315 313 311 304 295 285 274 268 260 252 245 243 242 244 248 254 263 281 297 263 258
292 292 297 300 302 306 309 309 312 312 312 311 311 310 309 308 309 309 309 310 309 311 313 313 311 310 311 309 310 311 312 315 317 319 320 318 319 318 315 311 310 311 312 313 313 313 313 313 311 307 306 303 297 292 288 291 295 298 299 306 312 323 326 323 326 329 328 319 309 295 282 270 261 259 255 254 254 253 256 262 267 262 270 261 259
290 291 297 302 301 305 307 311 313 313 313 310 310 309 309 310 310 310 309 311 313 313 314 313 311 310 309 309 309 311 314 318 320 318 316 320 320 318 315 314 313 313 316 316 317 315 316 313 308 309 308 302 298 295 295 295 296 308 305 309 318 320 332 335 345 340 337 330 324 311 310 295 275 266 267 266 266 264 263 261 260 261 260 260 260
288 293 303 305 309 305 307 308 310 313 309 308 308 309 309 310 311 311 311 313 315 316 314 310 310 310 310 309 308 311 315 316 315 314 317 320 321 320 318 318 315 318 319 319 319 317 315 313 310 308 309 305 303 303 304 307 308 310 317 317 322 337 328 349 351 3 349 349 338 311 313 303 296 272 272 271 274 272 269 268 267 266 263 260 259
289 300 305 309 309 307 305 307 313 309 308 309 309 309 309 310 312 312 313 315 315 315 312 309 309 311 310 308 309 311 315 313 311 312 317 320 321 321 323 321 318 321 322 321 322 319 318 315 314 313 307 306 305 307 307 310 312 311 309 323 1 16 22 18 21 7 25 13 41 48 nan nan nan 287 274 273 272 268 270 272 271 274 276 273 269
294 306 307 304 308 306 304 307 309 309 309 309 309 309 310 311 313 313 314 316 315 314 311 308 310 309 308 307 308 312 313 311 308 313 319 322 321 324 322 322 322 322 322 326 325 322 320 318 315 313 310 307 304 305 312 311 311 315 319 352 18 49 38 43 29 36 33 28 25 352 nan nan nan nan 283 282 280 275 272 269 271 271 275 274 272
299 314 305 302 306 304 308 309 310 308 310 310 309 310 311 312 313 314 315 316 315 312 310 308 309 308 307 305 304 308 311 309 310 313 319 321 321 321 321 321 321 322 325 327 327 323 322 319 316 315 312 307 305 304 305 309 309 315 344 14 45 96 105 88 68 62 61 54 15 nan nan nan nan 293 276 276 277 282 278 267 260 259 266 272 276
306 304 293 298 303 305 309 310 311 311 311 311 312 313 314 315 315 314 316 317 315 312 311 309 308 308 307 304 300 303 310 311 312 315 318 320 320 320 322 324 325 324 324 328 331 330 324 323 321 317 312 305 300 304 305 308 313 344 342 51 123 124 122 117 114 98 65 327 274 nan nan 292 292 290 283 284 278 271 269 267 270 269 272 274 272
307 283 293 297 307 305 306 309 311 311 313 315 315 316 318 318 318 317 318 317 314 314 312 311 310 310 308 301 297 298 309 311 312 315 317 321 321 323 322 322 323 324 324 326 327 326 325 324 318 315 310 306 306 308 309 309 328 327 4 73 90 107 101 100 103 92 5 290 272 264 275 288 293 291 281 274 268 269 271 274 277 278 278 272 270
282 285 290 297 305 303 305 306 308 310 313 315 317 318 320 321 320 319 319 317 316 315 314 312 311 310 305 299 294 297 304 311 314 314 318 320 322 325 322 321 321 324 323 324 321 324 323 319 318 315 313 311 311 312 315 314 338 357 14 39 92 92 101 109 109 43 nan 308 300 291 278 278 299 306 285 282 276 271 273 274 276 276 277 275 274
284 286 290 295 303 302 303 304 306 311 315 318 320 321 322 321 319 318 317 316 315 314 313 311 309 307 302 299 295 295 299 306 312 314 318 320 324 326 323 321 320 319 319 319 324 323 320 318 317 318 319 319 314 315 315 326 341 8 29 44 63 113 120 99 89 16 306 285 280 289 283 287 293 295 287 284 283 282 279 278 277 278 276 277 276
290 285 286 298 301 298 301 304 306 312 317 320 321 321 321 318 317 315 314 312 312 312 311 309 306 302 300 298 293 294 296 300 305 311 314 318 320 322 323 325 322 320 322 323 324 327 327 324 321 321 322 321 316 312 314 330 355 13 38 70 108 118 116 114 34 nan nan 310 318 305 296 296 296 290 290 291 289 286 284 282 282 280 277 277 280
283 283 292 295 296 299 298 302 308 314 318 319 318 316 315 314 313 310 309 308 309 308 306 304 301 300 299 295 293 295 295 296 301 307 311 315 318 321 325 326 322 317 316 320 320 320 325 327 325 322 323 319 317 314 319 334 350 15 75 103 109 107 133 121 281 301 297 298 299 295 295 302 301 288 290 294 293 290 288 286 284 282 282 282 282
284 293 296 294 295 300 302 302 308 312 311 310 309 310 310 310 307 305 305 307 307 304 302 302 298 295 294 294 294 295 297 298 301 305 311 315 320 320 321 324 322 314 313 316 317 314 317 323 326 323 319 320 319 317 321 331 330 356 94 81 113 108 115 79 345 319 319 312 311 305 306 309 304 294 291 294 299 295 290 287 287 287 287 285 284
291 294 290 292 295 301 303 306 303 300 300 303 305 309 310 308 304 306 306 304 301 298 298 296 295 294 291 293 294 296 299 302 302 306 311 316 319 321 319 324 321 315 312 313 314 313 313 318 320 322 321 321 321 319 322 321 322 349 47 41 70 85 78 67 343 301 306 304 303 294 295 297 286 291 295 295 295 296 293 289 286 286 289 290 288
288 288 290 292 296 302 299 300 297 295 297 300 304 307 308 302 300 301 299 296 295 295 295 294 292 289 289 292 294 296 298 300 302 306 309 312 316 319 320 319 321 315 311 312 312 315 314 314 317 319 321 322 321 320 322 322 328 349 19 41 52 63 76 83 320 323 318 315 312 311 nan 293 286 295 297 297 296 295 293 289 292 299 293 286 284
280 281 287 293 299 295 292 290 291 294 294 294 295 299 299 296 292 293 293 291 287 286 285 286 286 287 291 293 295 297 298 299 300 303 307 310 314 321 320 320 320 317 312 310 314 314 317 315 316 319 321 323 323 322 322 330 339 3 24 38 60 72 95 156 314 298 287 286 290 291 298 294 287 298 297 299 298 299 297 nan nan 292 292 293 288
246 263 285 292 290 284 279 280 284 284 286 281 287 292 294 288 286 288 288 286 284 282 284 285 287 290 294 297 299 301 300 300 302 305 307 310 317 319 322 323 320 319 314 311 314 317 316 317 317 320 322 323 322 324 329 335 351 10 19 40 62 111 123 41 324 305 292 294 298 303 308 305 303 292 298 301 302 301 301 301 298 299 296 291 290
264 264 249 244 279 277 270 275 276 276 278 279 284 292 291 287 283 281 285 285 286 285 286 289 294 296 298 298 298 296 297 300 306 307 310 314 319 328 322 324 322 316 317 315 315 318 318 318 319 323 322 323 324 327 330 339 341 353 22 26 45 77 14 336 295 302 303 300 302 306 312 307 296 295 293 294 298 nan nan 300 301 nan nan nan nan
274 271 260 254 261 266 265 266 269 275 281 284 282 287 288 287 283 280 282 285 288 291 290 297 301 302 300 297 295 296 299 301 307 306 310 314 319 320 324 323 323 318 313 316 317 318 319 319 322 323 325 325 326 326 326 332 346 352 10 23 62 0 11 316 310 309 312 306 305 309 308 300 298 298 299 nan 296 nan nan nan nan 295 nan nan nan
279 274 274 262 255 245 250 261 264 272 280 277 275 279 284 293 298 293 294 293 296 300 300 304 310 301 300 295 298 299 300 302 305 302 310 311 315 319 320 320 319 316 312 311 315 318 318 322 324 326 326 327 330 327 327 342 353 1 0 21 7 3 339 305 309 308 304 305 306 312 308 306 nan 297 298 nan nan nan nan nan nan nan nan nan nan
273 273 268 255 253 260 268 273 275 277 271 264 267 276 287 298 304 301 301 306 308 310 308 307 300 297 299 302 296 283 283 283 294 306 310 312 312 318 315 318 315 315 311 313 312 315 320 326 329 329 328 332 336 nan nan 332 340 359 4 352 344 8 315 300 296 298 297 303 nan 309 nan 303 297 nan nan nan nan nan nan nan nan nan nan nan nan
273 270 270 267 276 289 292 291 288 285 285 289 281 279 291 299 302 298 303 312 310 300 290 290 286 286 297 287 284 284 287 284 290 322 308 308 308 317 317 315 316 314 314 308 312 314 322 331 332 330 327 327 338 330 nan nan 336 336 340 343 354 334 320 312 305 303 307 nan nan 312 310 309 306 nan nan nan nan nan nan nan nan nan nan nan nan
266 263 272 287 305 311 307 305 301 299 302 302 306 314 312 300 289 288 300 308 308 305 304 305 297 292 290 294 297 292 299 293 301 302 314 312 312 314 314 309 309 311 313 309 302 305 313 320 320 324 323 327 340 343 328 332 337 335 340 345 341 333 315 306 306 303 nan nan 308 313 nan nan nan 310 308 nan 305 nan nan nan nan nan nan nan nan
272 286 296 300 304 302 300 296 291 294 302 313 322 322 308 293 296 300 308 316 311 307 308 318 304 298 301 297 299 297 296 299 316 321 314 316 311 315 320 315 312 311 310 310 301 297 308 314 315 318 325 326 331 347 325 324 332 318 315 317 317 321 325 308 302 304 309 nan nan nan nan nan nan nan 314 310 nan nan nan nan nan nan nan nan nan
279 290 298 296 295 300 301 299 304 309 315 322 323 319 309 304 313 319 320 320 316 312 317 323 303 303 309 307 299 298 295 318 323 325 320 317 313 314 320 316 311 307 306 309 300 297 303 306 308 308 319 320 323 316 306 310 319 316 315 320 332 330 307 307 310 310 nan nan nan nan nan nan nan nan nan nan nan nan nan nan nan nan nan nan nan
285 285 286 288 295 299 303 307 312 314 314 326 330 329 323 317 323 324 321 318 317 312 319 324 315 311 314 310 306 302 309 316 318 316 316 314 317 312 315 311 306 305 304 303 298 298 300 301 303 307 315 316 316 306 305 308 305 312 325 310 307 314 314 305 311 313 nan nan nan nan nan nan nan nan nan nan nan nan nan nan nan nan nan nan nan
283 285 289 291 296 297 300 303 312 317 319 328 332 329 320 306 312 317 318 317 314 312 318 319 319 317 316 311 307 304 305 308 312 312 312 322 318 309 295 292 304 301 303 301 300 296 294 296 301 303 306 313 309 305 309 301 308 304 301 313 307 301 297 298 307 313 308 nan nan nan nan nan nan nan nan nan nan nan nan nan nan nan nan nan nan
286 290 291 291 293 298 304 312 319 322 324 332 333 329 324 310 314 318 318 319 320 318 324 321 319 315 314 313 307 306 310 312 313 313 317 320 316 306 298 296 287 286 297 302 298 298 296 295 296 301 312 312 314 307 297 297 309 307 311 293 296 301 290 301 308 304 303 301 nan nan nan 307 308 nan nan nan nan nan nan nan nan nan nan nan nan
288 292 291 292 298 303 310 316 319 325 328 334 331 332 325 318 318 322 325 323 323 325 325 322 321 320 321 315 308 309 313 314 315 314 317 318 313 311 306 295 291 283 281 271 282 299 302 300 299 297 296 293 290 295 296 304 312 305 306 297 302 294 300 297 292 297 302 303 304 nan nan nan nan nan nan nan nan nan nan nan nan nan nan nan nan
278 284 288 293 299 304 310 315 318 323 326 329 330 329 328 328 326 328 327 324 323 323 320 318 319 319 319 314 315 314 316 311 312 313 317 315 314 312 307 297 291 290 296 290 271 293 301 301 298 294 292 288 282 277 290 306 311 308 306 298 292 296 295 292 286 291 303 nan nan nan nan nan nan nan nan nan nan nan nan nan nan nan nan nan nan
271 277 279 284 288 295 303 313 322 325 329 329 331 329 331 329 327 326 325 324 323 320 314 314 312 313 307 305 312 317 312 304 304 309 311 312 312 313 312 312 309 302 300 301 290 289 300 300 290 287 285 282 288 293 284 305 307 307 298 287 291 291 294 290 288 287 293 304 nan nan nan nan nan 320 nan nan nan nan nan nan nan nan nan nan nan
271 272 278 280 282 291 297 308 319 325 327 326 327 328 328 326 327 329 326 325 325 323 316 308 314 312 312 320 324 315 308 301 302 308 304 307 313 315 313 312 314 316 312 299 291 284 283 295 298 296 293 290 298 296 281 301 304 295 287 291 290 286 282 291 288 285 284 289 293 nan nan nan nan nan nan nan nan nan nan nan nan nan nan nan nan
269 273 281 285 289 292 303 312 319 323 325 323 326 324 324 329 329 330 330 324 326 325 318 313 315 320 321 321 316 316 305 299 300 303 305 316 316 312 311 315 319 321 321 305 294 292 295 293 300 299 291 290 298 292 301 294 287 284 287 285 279 273 275 279 282 286 292 291 288 293 298 nan nan nan nan nan nan nan nan nan nan nan nan nan nan
267 273 277 284 292 296 306 311 314 317 319 318 322 325 327 329 328 324 319 317 319 318 320 312 310 305 305 309 307 301 293 301 309 316 317 319 313 311 313 312 320 322 324 310 305 304 298 294 295 297 294 292 288 279 272 286 283 278 265 276 270 274 279 276 280 286 290 287 287 288 292 307 nan nan nan nan nan nan nan nan nan nan nan nan nan
263 272 276 283 292 296 299 305 307 314 316 317 322 325 325 328 324 314 307 303 313 318 308 295 281 289 280 268 269 282 289 308 322 325 318 311 306 308 309 311 314 318 319 316 310 307 303 299 293 293 297 291 284 288 298 293 279 283 282 278 274 273 279 280 279 285 285 290 286 284 290 289 309 322 nan nan nan nan nan nan nan nan nan nan nan
261 261 272 280 283 290 299 296 302 308 308 311 314 319 326 325 315 310 308 318 316 311 298 288 285 274 272 274 269 280 297 318 322 322 319 319 317 318 316 313 313 313 315 315 314 308 302 302 303 293 290 289 269 257 285 290 295 287 285 276 277 274 277 279 278 273 275 281 275 278 279 299 301 nan nan nan nan nan nan nan nan nan nan nan nan
253 256 265 270 273 281 286 294 300 301 300 306 310 315 320 322 321 322 321 323 313 311 294 290 291 297 300 301 301 296 300 312 315 319 315 315 316 319 317 314 312 312 312 313 316 316 314 312 310 302 291 283 278 269 265 281 285 275 268 274 280 277 274 271 267 272 270 265 269 277 283 283 284 301 295 nan nan nan nan nan nan nan nan 5 nan
255 263 261 263 271 275 286 295 296 298 306 310 310 315 317 319 323 322 322 313 302 305 301 298 309 318 320 317 308 299 303 306 306 308 311 309 312 313 312 314 313 313 314 315 315 315 318 316 313 304 296 288 284 277 271 271 261 274 281 291 282 274 267 271 270 266 268 269 270 271 274 271 282 291 289 294 nan nan nan nan nan nan nan 5 9
244 247 258 261 262 275 286 285 290 296 295 295 299 302 303 309 311 308 300 296 304 302 297 297 309 313 315 323 322 315 306 299 303 304 308 313 311 309 309 310 313 313 312 314 314 314 314 313 306 301 299 290 282 276 273 263 269 271 278 282 273 268 269 267 263 268 272 268 265 270 274 274 281 290 292 305 311 321 nan nan nan 345 344 nan 6
247 249 250 253 259 262 270 280 286 292 291 292 298 306 307 303 300 297 297 296 295 300 299 301 310 313 319 322 324 322 313 306 303 308 312 317 315 311 310 311 311 312 311 310 310 312 313 312 308 302 295 296 287 277 270 273 274 277 277 271 271 265 261 260 265 266 263 262 264 260 274 281 284 288 294 309 315 320 323 328 327 327 333 342 351
248 247 248 253 259 266 274 280 282 285 285 285 288 288 293 294 298 297 299 298 299 302 303 304 309 314 315 315 318 319 319 314 310 309 311 314 314 310 309 308 310 309 312 312 311 312 311 313 311 308 298 293 287 271 266 275 270 262 267 270 268 266 261 263 263 259 266 262 262 264 267 277 291 288 298 306 317 319 324 311 314 327 334 349 348
243 242 242 248 258 267 274 279 284 285 285 288 288 291 293 300 304 300 296 298 298 304 304 306 311 312 314 318 319 319 320 319 315 312 311 311 312 313 309 307 308 306 308 311 313 311 313 311 310 308 302 295 290 273 259 264 267 257 265 267 262 264 259 271 272 268 266 260 264 266 266 271 281 296 292 307 314 321 318 nan 332 336 338 346 339
243 242 243 247 254 254 262 276 280 279 282 280 282 288 293 295 299 297 303 300 302 304 304 307 308 308 311 315 319 319 318 316 313 311 312 313 313 315 312 307 307 307 307 309 311 312 312 312 312 311 310 300 291 270 250 258 268 270 256 261 256 249 257 260 276 263 270 260 264 269 269 274 275 283 289 304 303 307 316 316 322 nan 332 331 321
244 243 246 250 253 258 259 262 271 273 273 275 279 282 289 296 296 297 297 300 301 302 304 305 306 309 311 309 310 312 311 309 310 311 312 308 309 312 313 309 306 308 309 310 309 307 311 314 314 313 312 301 288 275 252 246 254 250 240 254 249 247 259 256 265 261 260 257 255 264 271 276 275 276 284 291 300 296 305 308 317 313 314 317 318
244 247 248 250 253 260 263 266 272 272 266 263 267 278 285 287 288 288 291 292 293 299 299 298 299 301 303 303 300 302 307 308 308 307 304 305 305 307 309 311 308 309 310 310 310 310 311 316 315 312 310 298 287 275 258 245 244 238 230 235 248 248 249 261 260 252 256 256 253 255 263 266 264 282 292 295 294 293 308 299 306 305 306 310 305
249 247 248 253 255 257 261 263 268 269 265 260 261 266 273 275 276 282 282 284 290 294 297 298 301 304 304 303 303 302 302 302 297 297 301 299 300 302 306 306 306 306 311 316 313 312 312 313 316 312 306 292 285 280 258 249 257 244 238 239 234 243 248 249 255 266 255 263 260 248 246 266 259 259 274 284 293 288 284 281 299 296 296 298 299
250 252 252 255 256 258 262 264 263 262 259 256 260 263 267 274 278 280 280 282 283 286 289 293 296 299 304 301 299 300 304 305 304 302 300 305 302 303 302 301 301 300 309 315 315 316 319 317 317 318 310 299 286 271 255 248 252 249 244 248 240 239 246 249 251 260 256 258 259 267 261 257 259 251 274 274 275 279 277 286 289 289 287 292 292
252 252 255 258 260 262 263 263 257 258 257 254 256 258 260 264 265 268 271 281 283 285 290 293 296 298 302 300 298 304 303 303 302 301 303 297 295 300 300 302 303 301 299 304 312 320 314 318 325 321 316 306 285 268 256 244 242 245 246 244 250 245 240 244 247 252 250 249 251 260 265 275 276 275 276 276 268 273 281 281 279 284 281 288 292
255 256 259 261 265 265 267 268 264 261 257 256 256 258 259 262 265 264 265 267 271 280 287 293 296 301 302 302 307 310 307 304 300 298 296 294 298 307 308 309 303 302 302 301 307 315 319 319 319 317 316 311 286 261 246 240 237 243 248 244 244 248 250 247 247 251 253 250 249 243 251 263 286 280 285 282 279 279 282 277 280 285 288 278 286